AirNav   Air Wisconsin pilot careers
 
 995 users online  

2OK2 Twin Lakes Airport
Midwest City, Oklahoma, USA

GOING TO MIDWEST CITY?


FAA INFORMATION EFFECTIVE 29 MARCH 2018

Location

FAA Identifier: 2OK2
Lat/Long: 35-19-45.2390N / 097-16-11.1080W
35-19.753983N / 097-16.185133W
35.3292331 / -97.2697522
(estimated)
Elevation: 1199 ft. / 365 m (estimated)
Variation: 07E (1985)
From city: 10 miles SE of MIDWEST CITY, OK
Time zone: UTC -5 (UTC -6 during Standard Time)
Zip code: 73165

Airport Operations

Airport use: Private use. Permission required prior to landing
Control tower: no
ARTCC: FORT WORTH CENTER
FSS: MC ALESTER FLIGHT SERVICE STATION
Attendance: UNATNDD
Wind indicator: yes
Segmented circle: no
Lights: ACTVT LIRL RY N/S - 122.7.

Airport Communications

UNICOM: 122.7
WX AWOS-3 at OUN (11 nm SW): 119.55 (405-325-7302)
WX AWOS-3 at SNL (16 nm E): 118.275 (405-878-1745)
WX ASOS at OKC (17 nm W): PHONE 405-686-4711

Nearby radio navigation aids

VOR radial/distance  VOR name  Freq  Var
IRWr089/16.7WILL ROGERS VORTAC114.1007E
PWAr116/22.1WILEY POST VOR/DME113.4008E

 
NDB name  Hdg/Dist  Freq  Var  ID
MULDROW348/18.151206EHMY .... -- -.--
SEMINOLE271/29.327806ESRE ... .-. .

Airport Services

Airframe service: NONE
Powerplant service: NONE

Runway Information

Runway N/S

Dimensions: 2702 x 30 ft. / 824 x 9 m
Surface: concrete
Runway edge lights: low intensity
RUNWAY N  RUNWAY S
Traffic pattern: rightleft
Obstructions: 300 ft. pline, 4000 ft. from runwaynone

Airport Ownership and Management from official FAA records

Ownership: Privately-owned
Owner: PILOTS HAVEN AIRPORT INC
13800 CHANDELLE DRIVE
NEWALLA, OK 74857
Phone 405-819-6671
Manager: SANDY SHARPE
13800 SKY HARBOR WAY
NEWALLA, OK 74857
Phone 405-819-6671

Airport Operational Statistics

Aircraft based on the field: 16
Single engine airplanes: 15
Multi engine airplanes: 1
    

Additional Remarks

SHARP DROP OFF AT EACH END OF RWY.
HIGH LINE AT RIGHT ANGLE TO RWY-APRX 3/4MI FM S END OF RWY.
AIRPORT TRAFFIC REMAIN EAST OF RY.

Instrument Procedures

There are no published instrument procedures at 2OK2.

Some nearby airports with instrument procedures:

KTIK - Tinker Air Force Base (8 nm NW)
KOUN - University of Oklahoma Westheimer Airport (11 nm SW)
1K4 - David Jay Perry Airport (14 nm SW)
KSNL - Shawnee Regional Airport (16 nm E)
KOKC - Will Rogers World Airport (17 nm W)
KHMY - Muldrow Army Heliport (18 nm S)
 
Loc | Ops | Rwys | IFR | FBO | Links
Com | Nav | Svcs | Stats | Notes

AirNav Hotels Sweepstakes
 
Area around 2OK2 (Twin Lakes Airport)
 
Road maps at: MapQuest Bing Google
 
Aerial photo
WARNING: Photo may not be current or correct
Aerial photo of 2OK2 (Twin Lakes Airport)
Do you have a better or more recent aerial photo of Twin Lakes Airport that you would like to share? If so, please send us your photo.

 
Sectional chart

 
Airport distance calculator
Flying to Twin Lakes Airport? Find the distance to fly.

From to 2OK2

Sunrise and sunset
Times for 20-Apr-2018
 Local
(UTC-5)
 Zulu
(UTC)
Morning civil twilight06:2511:25
Sunrise06:5111:51
Sunset20:0501:05
Evening civil twilight20:3101:31

Current date and time
Zulu (UTC)  20-Apr-2018 23:36:16
Local (UTC-5)  20-Apr-2018 18:36:16
 
METAR
KTIK 
7nm NW 
202256Z AUTO 14014G18KT 10SM CLR 19/00 A3005 RMK AO2 SLP182 T01940004 $
KOUN 
11nm SW 
202246Z 10019KT 10SM BKN250 19/01 A3004
KSNL 
16nm E 
202315Z AUTO 15013KT 10SM CLR 19/00 A3007 RMK AO2 LTG DSNT NW T01930001
KOKC 
16nm W 
202252Z 15018G27KT 10SM FEW100 SCT180 BKN250 18/01 A3005 RMK AO2 PK WND 13027/2223 SLP174 T01830006
KHMY 
18nm S 
SuperAWOS
202255Z AUTO 00000KT 10SM 19/03 A3005
TAF
KTIK 
7nm NW 
201700Z 2017/2123 13015G20KT 9999 FEW200 520008 QNH3006INS BECMG 2100/2101 13009KT 9999 SCT100 BKN200 QNH3009INS BECMG 2103/2104 10006KT 8000 -SHRA BKN100 QNH3012INS TEMPO 2104/2108 4800 -TSRA OVC020CB BECMG 2108/2109 10009KT 8000 -SHRA BKN015 QNH3005INS TX20/2021Z TN07/2112Z
KOUN 
11nm SW 
201720Z 2018/2118 14016G22KT P6SM BKN250 FM210000 12011KT P6SM BKN120 BKN200 TEMPO 2103/2106 P6SM -SHRA OVC050 FM210800 12012KT 6SM -RA SCT008 OVC020 FM211500 10009KT P6SM -SHRA OVC025
KOKC 
16nm W 
201720Z 2018/2118 14016G22KT P6SM BKN250 FM210000 12012KT P6SM BKN120 BKN200 TEMPO 2103/2106 P6SM -SHRA OVC050 FM210800 12012KT 6SM -RA SCT008 OVC020 FM211500 10010KT P6SM -SHRA OVC025
NOTAMs
Click for the latest NOTAMs
NOTAMs are issued by the DoD/FAA and will open in a separate window not controlled by AirNav.

 

 
 

Would you like to see your business listed on this page?

 If your business provides an interesting product or service to pilots, flight crews, aircraft, or users of the Twin Lakes Airport, you should consider listing it here.  To start the listing process, click on the button below
 
Add a business
 

Other Pages about Twin Lakes Airport

Update a link
 
Copyright © AirNav, LLC. All rights reserved. Privacy Policy  Contact